Weather History for New Haven, CT

Change the Weather History Date:

Monday, January 21, 2013

  Actual Average Record
Temperature  
Mean Temperature 28 °F -  
Max Temperature 30 °F 32 °F 60 °F (1986)
Min Temperature 27 °F 20 °F 3 °F (1985)
Degree Days  
Heating Degree Days 36    
Moisture  
Dew Point 16 °F    
Average Humidity 59    
Maximum Humidity 86    
Minimum Humidity 35    
Precipitation  
Precipitation 0.00 in - - ()
Sea Level Pressure  
Sea Level Pressure 29.97 in    
Wind  
Wind Speed 5 mph (NW)    
Max Wind Speed 9 mph    
Max Gust Speed 17 mph    
Visibility 8 miles    
Events Snow    
Averages and records for this station are not official NWS values.
T = Trace of Precipitation, MM = Missing Value Source: NWS Daily Summary

Daily Weather History Graph

Daily Weather History Graph

Search for Another Location

Airport:

Trip Planner

Search our weather history database for the weather conditions in past years. The results will help you decide how hot, cold, wet, or windy it might be!

Date:

Astronomy

Jan. 21, 2013 Rise Set
Actual Time 7:11 AM EST 4:54 PM EST
Civil Twilight 6:41 AM EST 5:24 PM EST
Nautical Twilight 6:07 AM EST 5:58 PM EST
Astronomical Twilight 5:35 AM EST 6:31 PM EST
Moon 12:32 PM EST (1/21) 2:37 AM EST (1/21)
Length of Visible Light 10h 43m
Length of Day
9h 43m
Waxing Gibbous, 75% of the Moon is Illuminated
Jan 21
Waxing Gibbous
Jan 26
Full
Feb 3
Last Quarter
Feb 10
New
Feb 17
First Quarter

Hourly Weather History & Observations

Time (EST) Temp. Windchill Dew Point Humidity Pressure Visibility Wind Dir Wind Speed Gust Speed Precip Events Conditions
12:53 AM 30.9 °F 22.8 °F 8.1 °F 38% 30.02 in 10.0 mi NW 9.2 mph 16.1 mph N/A   Clear
1:53 AM 30.0 °F 24.1 °F 8.1 °F 40% 30.04 in 10.0 mi WNW 5.8 mph 17.3 mph N/A   Clear
2:53 AM 30.0 °F 22.4 °F 8.1 °F 40% 30.05 in 10.0 mi WNW 8.1 mph - N/A   Clear
3:53 AM 28.9 °F 22.8 °F 9.0 °F 43% 30.06 in 10.0 mi NW 5.8 mph - N/A   Clear
4:53 AM 28.0 °F 21.7 °F 9.0 °F 45% 30.07 in 10.0 mi NW 5.8 mph - N/A   Clear
5:53 AM 27.0 °F - 9.0 °F 47% 30.08 in 10.0 mi Calm Calm - N/A   Scattered Clouds
6:53 AM 27.0 °F 23.0 °F 7.0 °F 43% 30.09 in 10.0 mi Variable 3.5 mph - N/A   Scattered Clouds
7:53 AM 27.0 °F - 6.1 °F 41% 30.10 in 10.0 mi Calm Calm - N/A   Mostly Cloudy
8:53 AM 28.0 °F - 8.1 °F 43% 30.10 in 10.0 mi Calm Calm - N/A   Overcast
9:53 AM 28.9 °F - 3.9 °F 35% 30.11 in 10.0 mi Calm Calm - N/A   Overcast
10:53 AM 28.9 °F - 6.1 °F 38% 30.08 in 10.0 mi Calm Calm - N/A   Overcast
11:53 AM 30.0 °F 25.2 °F 9.0 °F 41% 30.04 in 10.0 mi ESE 4.6 mph - N/A   Mostly Cloudy
12:53 PM 30.0 °F - 10.0 °F 43% 30.00 in 10.0 mi Calm Calm - N/A   Overcast
1:53 PM 30.9 °F 24.3 °F 12.0 °F 46% 29.98 in 10.0 mi ESE 6.9 mph - N/A   Overcast
2:53 PM 30.9 °F 24.3 °F 12.9 °F 47% 29.96 in 10.0 mi SE 6.9 mph - N/A   Overcast
3:53 PM 30.9 °F 24.3 °F 19.9 °F 64% 29.93 in 4.0 mi South 6.9 mph - 0.00 in Snow Light Snow
4:08 PM 30.2 °F 23.4 °F 21.2 °F 69% 29.92 in 2.0 mi SSE 6.9 mph - 0.00 in Snow Light Snow
4:15 PM 30.2 °F 25.4 °F 21.2 °F 69% 29.91 in 1.5 mi SE 4.6 mph - 0.00 in Snow Light Snow
4:53 PM 30.0 °F 26.5 °F 24.1 °F 79% 29.91 in 2.0 mi SE 3.5 mph - 0.00 in Snow Light Snow
5:43 PM 30.2 °F - 24.8 °F 80% 29.90 in 1.5 mi Calm Calm - 0.00 in Snow Light Snow
5:53 PM 30.0 °F 26.5 °F 24.1 °F 79% 29.90 in 1.5 mi NW 3.5 mph - 0.00 in Snow Light Snow
5:55 PM 30.2 °F 26.7 °F 24.8 °F 80% 29.90 in 3.0 mi NNW 3.5 mph - 0.00 in Snow Light Snow
6:25 PM 30.2 °F 26.7 °F 24.8 °F 80% 29.90 in 10.0 mi NNW 3.5 mph - 0.00 in   Overcast
6:53 PM 30.0 °F - 24.1 °F 79% 29.90 in 7.0 mi Calm Calm - 0.00 in Snow Light Snow
7:53 PM 28.9 °F 22.8 °F 23.0 °F 78% 29.88 in 10.0 mi North 5.8 mph - 0.00 in   Overcast
8:53 PM 28.9 °F 21.1 °F 24.1 °F 82% 29.87 in 2.5 mi North 8.1 mph - 0.00 in Snow Light Snow
9:28 PM 28.4 °F 22.2 °F 24.8 °F 86% 29.85 in 7.0 mi NNW 5.8 mph - 0.00 in Snow Light Snow
9:53 PM 28.9 °F 25.2 °F 23.0 °F 78% 29.86 in 9.0 mi WNW 3.5 mph - 0.00 in Snow Light Snow
10:53 PM 28.9 °F 25.2 °F 21.9 °F 75% 29.84 in 10.0 mi Variable 3.5 mph - 0.00 in   Overcast
11:53 PM 28.0 °F 24.2 °F 21.0 °F 75% 29.81 in 10.0 mi WNW 3.5 mph - N/A   Mostly Cloudy